SCP
0 0 -0 0 0 0 0 0 0 0 0 0 0 0 0 0 0 0 0 0 0 0 0 0 0 0 0 0 0 0 0 0 0 0 0 0 0 0 0 0 0 0 0
-0 0 -0 -0 0 0 0 0 0 0 0 0 0 0 0 0 0 0 0 0 0 0 0 0 0 0 0 0 0 0 0 0 0 0 0 0 0 0 0 0 0 0 0
0 0 0 0 0 0 0 0 0 0 0 0 0 0 0 0 0 0 0 0 0 0 0 0 0 0 0 0 0 0 0 0 0 0 0 0 0 0 0 0 0 0 0
0 0 0 -0 -0 -0 0 0 0 0 0 0 0 0 0 0 0 0 0 0 0 0 0 0 0 0 0 0 0 0 0 0 0 0 0 0 0 0 0 0 0 0 0
0 0 0 -0 -0 -0 0 0 0 0 0 0 0 0 0 0 0 0 0 0 0 0 0 0 0 0 0 0 0 0 0 0 0 0 0 0 0 0 0 0 0 0 0
0 0 0 -0 0 0 0 0 0 0 0 0 0 0 0 0 0 0 0 0 0 0 0 0 0 0 0 0 0 0 0 0 0 0 0 0 0 0 0 0 0 0 0
0 0 0 -0 0 0 0 0 0 0 0 0 0 0 0 0 0 0 0 0 0 0 0 0 0 0 0 0 0 0 0 0 0 0 0 0 0 0 0 0 0 0 0
0 0 0 0 0 0 0 0 0 0 0 0 0 0 0 0 0 -0 0 0 0 0 0 0 0 0 0 0 0 0 0 0 0 0 0 0 0 0 0 0 0 0 0
0 0 0 0 0 0 0 0 0 -0 0 0 0 0 -0 -0 0 -0 -0 0 0 0 0 0 0 0 0 0 0 0 0 0 0 0 0 0 0 0 0 0 0 0 0
0 0 0 0 0 0 0 0 0 -0 -0 -0 -0 -0 -0 -0 -0 -0 -0 -0 0 0 0 0 0 0 0 0 0 0 0 0 0 0 0 0 0 0 0 0 0 0 0
0 0 0 0 0 0 0 0 0 -0 -0 -0 -0 0 0 0 -0 -0 -0 -0 -0 -0 0 0 0 0 0 0 0 0 0 0 0 0 0 0 0 0 0 0 0 0 0
0 0 0 0 0 0 0 0 0 -0 -0 0 -0 0 0 0 0 0 0 -0 0 0 0 0 0 0 0 0 0 0 0 0 0 0 0 0 0 0 0 0 0 0 0
0 0 0 0 0 0 0 0 0 0 0 0 0 0 0 0 0 0 0 0 0 0 0 0 0 0 0 0 0 0 0 0 0 0 0 0 0 0 0 0 0 0 0
0 0 0 0 0 0 0 0 0 0 0 0 0 0 0 0 0 0 0 0 0 0 0 0 0 0 0 0 0 0 0 0 0 0 0 0 0 0 0 0 0 0 0
0 0 0 0 0 0 0 0 0 0 0 0 0 0 0 0 0 0 0 0 0 0 0 0 0 0 0 0 0 0 0 0 0 0 0 0 0 0 0 0 0 0 0
0 0 0 0 0 0 0 0 0 0 0 0 0 0 0 0 0 0 0 0 0 0 0 0 0 0 0 0 0 0 0 0 0 0 0 0 0 0 0 0 0 0 0
0 0 0 0 0 0 0 0 0 0 0 0 0 0 0 0 0 0 0 0 0 0 0 0 0 0 0 0 0 0 0 0 0 0 0 0 0 0 0 0 0 0 0
0 0 0 0 0 0 0 0 0 0 0 0 0 0 0 0 0 0 0 0 0 0 0 0 0 0 0 0 0 0 0 0 0 0 0 0 0 0 0 -0 -0 0 0
0 0 0 0 0 0 0 0 0 0 0 0 0 0 0 0 0 0 0 0 0 0 0 0 0 0 0 0 0 0 0 0 0 0 0 0 0 0 0 0 -0 0 0
0 0 0 0 0 0 0 0 0 0 0 0 0 0 0 0 0 0 0 0 0 0 0 0 0 0 0 0 0 0 0 0 0 0 0 0 0 0 0 0 0 0 0
0 0 0 0 0 0 0 0 0 0 0 0 0 0 0 0 0 0 0 0 0 0 0 0 0 0 0 0 0 0 0 0 0 0 0 0 0 0 0 0 0 0 0
0 0 0 0 0 0 0 0 0 0 0 0 0 0 0 0 0 0 0 0 0 0 0 0 0 0 0 0 0 0 0 0 0 0 0 0 0 0 0 0 0 0 0
0 0 0 0 0 0 0 0 0 0 0 0 0 0 0 0 0 0 0 0 0 0 0 0 0 0 0 0 0 0 0 0 0 0 0 0 0 0 0 0 0 0 0
0 0 0 0 0 0 0 0 0 0 0 0 0 0 0 0 0 0 0 0 0 0 0 0 0 0 0 0 0 0 0 0 0 0 0 0 0 0 0 0 0 0 0
0 0 0 0 0 0 0 0 0 0 0 0 0 0 0 0 0 0 0 0 0 0 0 0 0 0 0 0 0 0 0 0 0 0 0 0 0 0 0 0 0 0 0
0 0 0 0 0 0 0 0 0 0 0 0 0 0 0 0 0 0 0 0 0 0 0 0 0 0 0 0 0 0 0 0 0 0 0 0 0 0 0 0 0 0 0
Wind_Speed_500mb
26 14 11 12 12 11 9 9 4 3 5 7 12 10 10 9 9 10 12 12 13 15 11 6 3 5 3 12 15 19 18 17 19 19 20 19 17 13 14 14 13 15 11
24 18 11 10 10 9 6 7 6 5 9 13 13 12 12 9 10 11 12 13 10 14 12 13 8 6 5 4 11 17 22 22 21 23 22 22 23 20 18 15 16 16 12
19 13 11 14 13 6 5 6 7 9 12 13 13 12 9 7 9 10 11 10 10 11 10 10 8 6 5 5 4 10 19 25 26 24 26 27 24 22 21 16 12 12 11
13 11 12 15 13 10 4 5 8 9 11 12 9 4 1 3 7 11 15 17 17 17 16 14 11 9 7 5 5 5 11 20 27 29 30 30 28 27 22 18 12 11 10
16 11 10 13 19 16 9 6 7 10 13 12 7 4 5 9 13 18 18 17 17 16 15 13 12 11 8 7 6 6 6 12 20 26 28 29 31 31 26 24 17 13 11
15 9 7 14 19 17 15 12 9 9 8 4 7 10 11 15 19 24 23 24 21 19 16 15 14 13 12 10 8 6 5 7 14 17 22 26 24 24 27 26 18 17 16
15 7 4 11 18 17 17 21 14 13 9 9 13 17 19 19 21 23 27 28 26 24 21 19 18 17 17 16 12 6 2 7 15 10 10 19 20 21 19 25 24 19 19
11 9 4 7 11 14 20 21 20 17 14 14 15 15 16 19 19 21 25 25 25 23 18 16 13 13 14 19 15 5 6 14 14 11 17 22 20 17 16 18 19 17 19
16 6 1 5 6 11 16 18 23 25 18 11 10 8 8 14 15 14 17 19 19 23 13 10 10 8 9 17 18 8 11 13 12 12 15 16 13 11 9 6 8 12 17
16 10 2 2 2 6 10 11 16 24 23 18 9 8 7 9 9 7 8 11 13 20 14 12 11 10 5 6 10 9 9 7 9 12 17 17 13 11 5 2 8 16 22
23 13 8 5 2 4 5 4 8 15 19 19 14 11 8 4 10 9 4 5 10 18 18 19 23 15 9 2 3 5 8 11 9 21 22 17 11 4 4 7 12 19 24
24 15 12 10 8 10 10 7 3 7 13 15 18 23 12 11 12 7 12 10 16 14 12 11 12 7 8 1 4 2 1 8 16 20 18 11 6 5 7 11 16 17 13
20 19 13 12 16 16 13 10 6 3 7 11 15 19 16 13 7 11 11 13 14 11 8 9 8 7 10 10 9 4 2 9 17 16 11 9 3 4 8 11 13 14 15
33 23 15 15 17 16 16 13 10 6 5 7 12 20 17 10 3 3 12 19 12 3 10 14 11 8 6 10 14 11 7 14 18 18 11 5 4 4 4 6 9 18 20
40 30 20 19 18 17 19 16 13 8 6 6 9 15 20 8 2 8 9 19 16 13 13 19 17 8 7 4 11 13 12 12 11 10 8 5 4 6 5 7 15 20 28
43 36 27 22 16 16 18 17 14 10 8 7 7 8 16 20 11 13 13 17 20 15 18 28 12 4 6 1 5 10 8 9 10 9 3 4 9 13 9 15 22 25 25
48 38 31 23 15 14 17 19 17 13 10 9 11 8 9 15 16 15 17 17 21 16 20 27 7 2 3 6 5 4 8 9 9 3 2 7 8 11 16 24 23 21 25
52 43 32 21 15 18 19 21 21 19 15 12 10 6 7 10 13 11 15 16 19 20 22 23 7 4 5 5 12 8 9 8 4 2 6 7 11 15 19 15 18 19 22
56 47 39 27 22 17 22 24 24 22 16 11 7 3 5 9 14 12 18 20 20 22 17 18 6 6 5 5 4 13 12 7 2 6 6 12 13 13 12 17 22 24 24
57 51 44 34 25 22 25 23 21 19 16 13 9 7 10 10 17 21 23 18 21 18 12 13 10 8 11 13 8 5 12 9 10 6 8 11 13 13 17 22 27 27 28
55 56 48 36 25 21 23 26 24 20 17 14 10 12 13 12 15 23 22 15 16 11 13 11 15 13 8 16 12 13 7 17 18 11 21 13 13 17 23 27 31 34 33
50 57 48 35 26 23 24 25 24 22 17 16 16 14 19 15 14 18 10 12 12 14 12 10 12 15 16 16 16 9 5 7 17 23 30 27 13 24 27 28 31 33 35
42 52 47 36 29 26 25 31 28 27 24 18 16 15 11 10 10 9 6 8 11 12 10 9 9 10 11 12 16 11 8 6 33 24 33 23 34 31 33 33 34 35 38
22 44 41 38 35 29 30 33 30 27 22 18 16 10 11 9 8 8 7 10 12 13 11 10 9 10 12 13 15 14 16 22 24 28 29 40 35 32 27 24 26 29 30
6 30 40 39 37 34 34 34 32 30 27 22 18 14 13 14 15 18 15 12 11 12 9 9 10 13 16 20 23 25 28 27 30 31 44 43 32 29 27 28 30 28 27
6 21 34 37 37 35 37 37 38 32 27 23 19 19 17 18 15 19 21 14 10 13 10 8 10 16 20 26 27 29 31 29 30 29 34 36 40 40 39 41 41 42 39
Wind_Direction_500mb
176 157 80 40 2 338 285 282 275 263 318 319 328 326 326 342 352 355 1 12 40 53 39 52 339 336 234 213 216 207 211 205 197 196 203 205 203 196 194 189 179 180 190
149 142 110 40 345 320 280 261 269 277 310 318 318 320 323 339 346 354 1 24 29 41 38 31 37 7 343 302 230 214 209 219 215 205 203 205 208 208 202 201 194 209 225
155 130 73 27 357 332 298 280 280 292 305 308 305 307 320 337 345 355 11 38 32 34 19 16 5 20 8 339 273 233 216 212 218 216 214 209 210 206 200 194 207 235 236
146 102 58 38 20 350 357 310 305 310 314 307 297 287 316 2 16 23 27 22 14 8 4 359 359 355 351 332 311 271 237 218 214 214 216 216 209 200 193 192 206 230 243
152 114 74 43 35 32 13 357 338 332 327 324 335 55 66 53 51 54 42 27 16 12 11 12 12 17 18 6 326 286 227 215 214 217 222 218 214 205 215 217 206 223 238
150 123 63 41 39 31 32 20 358 351 350 32 92 91 76 70 79 62 60 51 45 37 27 22 20 23 25 22 357 307 277 210 192 202 216 220 211 200 222 222 206 217 221
166 145 45 49 35 43 41 19 24 23 42 79 98 93 83 82 88 66 63 58 57 52 54 51 50 58 53 42 20 351 245 167 159 159 177 198 190 206 198 200 204 226 256
190 172 111 50 42 48 36 32 47 51 64 83 96 91 85 79 88 69 61 60 53 51 54 49 57 56 43 30 2 7 149 147 159 143 130 170 186 183 180 197 226 245 265
191 197 68 13 60 47 36 43 53 53 53 58 67 57 71 83 91 74 64 54 50 43 43 17 36 39 38 43 33 56 130 148 151 136 147 132 152 163 183 217 269 293 290
195 194 209 278 25 57 26 39 55 53 48 39 33 27 58 62 57 51 66 39 43 36 28 11 20 0 326 40 52 82 113 141 154 152 147 141 156 152 178 273 308 313 307
201 210 196 210 276 297 325 16 43 60 57 43 23 354 1 347 18 25 77 37 32 21 5 5 6 14 33 180 76 99 109 116 137 149 146 152 153 134 40 6 342 328 313
217 220 218 217 240 252 265 283 360 67 74 39 33 19 338 334 337 352 342 14 18 347 353 5 17 29 12 186 215 311 148 126 134 134 144 142 126 63 23 11 355 343 322
233 228 247 234 227 229 238 261 261 4 48 36 24 6 352 319 314 308 350 3 339 331 346 359 4 9 22 54 82 270 292 98 128 120 140 152 133 20 6 1 351 335 322
232 236 246 239 223 224 224 242 249 301 345 9 12 3 3 328 268 355 58 16 3 1 352 360 350 332 358 40 69 48 157 117 121 121 134 172 259 323 334 341 359 346 337
233 231 234 227 232 250 251 240 251 277 304 334 0 5 18 3 328 33 30 13 16 358 359 349 345 313 321 40 81 70 110 140 125 147 161 190 273 279 290 311 320 329 326
239 230 225 222 225 254 256 256 250 276 291 306 327 354 19 27 21 21 12 7 11 7 1 353 343 322 330 206 124 93 105 140 145 139 142 289 277 279 279 302 306 312 324
240 225 220 212 224 240 244 247 245 265 278 286 309 313 8 13 7 11 2 1 7 14 4 3 37 66 54 203 184 115 136 140 150 197 308 314 280 277 294 310 311 316 322
237 228 212 205 208 215 229 230 241 259 255 254 294 314 342 342 348 348 346 336 5 2 2 4 68 97 77 125 192 182 170 158 150 296 315 309 307 306 314 299 313 316 325
233 226 212 207 213 225 237 241 238 244 248 257 252 254 328 315 332 325 334 330 337 346 359 21 63 44 47 26 219 195 175 171 107 76 341 326 318 311 306 310 309 317 325
229 219 217 208 209 231 235 233 234 243 248 238 225 262 293 308 327 334 327 326 331 337 2 30 51 347 9 21 42 139 188 156 168 205 342 312 286 300 302 302 300 297 302
227 219 215 213 222 243 240 230 230 227 217 220 242 254 283 292 312 331 320 321 335 345 359 31 38 41 14 39 110 97 137 200 219 225 353 302 298 273 282 286 296 294 282
235 218 216 218 241 258 245 231 225 221 226 234 242 260 262 273 301 320 324 326 345 350 329 343 19 44 23 21 25 36 40 201 226 247 299 320 301 302 304 287 287 283 282
238 224 223 231 243 249 246 224 224 231 230 238 254 268 264 273 291 297 2 1 1 348 333 332 6 33 38 16 4 9 351 305 309 310 318 320 316 313 310 306 299 293 289
273 236 226 234 248 247 243 224 226 225 229 241 247 261 251 242 241 269 305 336 345 342 330 305 329 344 351 349 341 333 321 309 309 310 311 318 314 322 320 318 312 306 301
288 243 235 239 245 250 237 223 225 225 233 235 235 234 244 235 248 256 269 291 323 328 297 305 315 329 334 334 327 320 318 313 306 304 308 309 319 333 330 331 329 325 320
271 230 233 244 251 252 226 227 227 231 232 234 234 239 243 245 269 265 263 276 326 338 315 311 324 331 328 323 319 315 309 305 302 300 295 302 316 324 327 326 325 318 310
Wind_Speed_850mb
26 14 11 12 12 11 9 9 4 3 5 7 12 10 10 9 9 10 12 12 13 15 11 6 3 5 3 12 15 19 18 17 19 19 20 19 17 13 14 14 13 15 11
24 18 11 10 10 9 6 7 6 5 9 13 13 12 12 9 10 11 12 13 10 14 12 13 8 6 5 4 11 17 22 22 21 23 22 22 23 20 18 15 16 16 12
19 13 11 14 13 6 5 6 7 9 12 13 13 12 9 7 9 10 11 10 10 11 10 10 8 6 5 5 4 10 19 25 26 24 26 27 24 22 21 16 12 12 11
13 11 12 15 13 10 4 5 8 9 11 12 9 4 1 3 7 11 15 17 17 17 16 14 11 9 7 5 5 5 11 20 27 29 30 30 28 27 22 18 12 11 10
16 11 10 13 19 16 9 6 7 10 13 12 7 4 5 9 13 18 18 17 17 16 15 13 12 11 8 7 6 6 6 12 20 26 28 29 31 31 26 24 17 13 11
15 9 7 14 19 17 15 12 9 9 8 4 7 10 11 15 19 24 23 24 21 19 16 15 14 13 12 10 8 6 5 7 14 17 22 26 24 24 27 26 18 17 16
15 7 4 11 18 17 17 21 14 13 9 9 13 17 19 19 21 23 27 28 26 24 21 19 18 17 17 16 12 6 2 7 15 10 10 19 20 21 19 25 24 19 19
11 9 4 7 11 14 20 21 20 17 14 14 15 15 16 19 19 21 25 25 25 23 18 16 13 13 14 19 15 5 6 14 14 11 17 22 20 17 16 18 19 17 19
16 6 1 5 6 11 16 18 23 25 18 11 10 8 8 14 15 14 17 19 19 23 13 10 10 8 9 17 18 8 11 13 12 12 15 16 13 11 9 6 8 12 17
16 10 2 2 2 6 10 11 16 24 23 18 9 8 7 9 9 7 8 11 13 20 14 12 11 10 5 6 10 9 9 7 9 12 17 17 13 11 5 2 8 16 22
23 13 8 5 2 4 5 4 8 15 19 19 14 11 8 4 10 9 4 5 10 18 18 19 23 15 9 2 3 5 8 11 9 21 22 17 11 4 4 7 12 19 24
24 15 12 10 8 10 10 7 3 7 13 15 18 23 12 11 12 7 12 10 16 14 12 11 12 7 8 1 4 2 1 8 16 20 18 11 6 5 7 11 16 17 13
20 19 13 12 16 16 13 10 6 3 7 11 15 19 16 13 7 11 11 13 14 11 8 9 8 7 10 10 9 4 2 9 17 16 11 9 3 4 8 11 13 14 15
33 23 15 15 17 16 16 13 10 6 5 7 12 20 17 10 3 3 12 19 12 3 10 14 11 8 6 10 14 11 7 14 18 18 11 5 4 4 4 6 9 18 20
40 30 20 19 18 17 19 16 13 8 6 6 9 15 20 8 2 8 9 19 16 13 13 19 17 8 7 4 11 13 12 12 11 10 8 5 4 6 5 7 15 20 28
43 36 27 22 16 16 18 17 14 10 8 7 7 8 16 20 11 13 13 17 20 15 18 28 12 4 6 1 5 10 8 9 10 9 3 4 9 13 9 15 22 25 25
48 38 31 23 15 14 17 19 17 13 10 9 11 8 9 15 16 15 17 17 21 16 20 27 7 2 3 6 5 4 8 9 9 3 2 7 8 11 16 24 23 21 25
52 43 32 21 15 18 19 21 21 19 15 12 10 6 7 10 13 11 15 16 19 20 22 23 7 4 5 5 12 8 9 8 4 2 6 7 11 15 19 15 18 19 22
56 47 39 27 22 17 22 24 24 22 16 11 7 3 5 9 14 12 18 20 20 22 17 18 6 6 5 5 4 13 12 7 2 6 6 12 13 13 12 17 22 24 24
57 51 44 34 25 22 25 23 21 19 16 13 9 7 10 10 17 21 23 18 21 18 12 13 10 8 11 13 8 5 12 9 10 6 8 11 13 13 17 22 27 27 28
55 56 48 36 25 21 23 26 24 20 17 14 10 12 13 12 15 23 22 15 16 11 13 11 15 13 8 16 12 13 7 17 18 11 21 13 13 17 23 27 31 34 33
50 57 48 35 26 23 24 25 24 22 17 16 16 14 19 15 14 18 10 12 12 14 12 10 12 15 16 16 16 9 5 7 17 23 30 27 13 24 27 28 31 33 35
42 52 47 36 29 26 25 31 28 27 24 18 16 15 11 10 10 9 6 8 11 12 10 9 9 10 11 12 16 11 8 6 33 24 33 23 34 31 33 33 34 35 38
22 44 41 38 35 29 30 33 30 27 22 18 16 10 11 9 8 8 7 10 12 13 11 10 9 10 12 13 15 14 16 22 24 28 29 40 35 32 27 24 26 29 30
6 30 40 39 37 34 34 34 32 30 27 22 18 14 13 14 15 18 15 12 11 12 9 9 10 13 16 20 23 25 28 27 30 31 44 43 32 29 27 28 30 28 27
6 21 34 37 37 35 37 37 38 32 27 23 19 19 17 18 15 19 21 14 10 13 10 8 10 16 20 26 27 29 31 29 30 29 34 36 40 40 39 41 41 42 39
Wind_Direction_850mb
176 157 80 40 2 338 285 282 275 263 318 319 328 326 326 342 352 355 1 12 40 53 39 52 339 336 234 213 216 207 211 205 197 196 203 205 203 196 194 189 179 180 190
149 142 110 40 345 320 280 261 269 277 310 318 318 320 323 339 346 354 1 24 29 41 38 31 37 7 343 302 230 214 209 219 215 205 203 205 208 208 202 201 194 209 225
155 130 73 27 357 332 298 280 280 292 305 308 305 307 320 337 345 355 11 38 32 34 19 16 5 20 8 339 273 233 216 212 218 216 214 209 210 206 200 194 207 235 236
146 102 58 38 20 350 357 310 305 310 314 307 297 287 316 2 16 23 27 22 14 8 4 359 359 355 351 332 311 271 237 218 214 214 216 216 209 200 193 192 206 230 243
152 114 74 43 35 32 13 357 338 332 327 324 335 55 66 53 51 54 42 27 16 12 11 12 12 17 18 6 326 286 227 215 214 217 222 218 214 205 215 217 206 223 238
150 123 63 41 39 31 32 20 358 351 350 32 92 91 76 70 79 62 60 51 45 37 27 22 20 23 25 22 357 307 277 210 192 202 216 220 211 200 222 222 206 217 221
166 145 45 49 35 43 41 19 24 23 42 79 98 93 83 82 88 66 63 58 57 52 54 51 50 58 53 42 20 351 245 167 159 159 177 198 190 206 198 200 204 226 256
190 172 111 50 42 48 36 32 47 51 64 83 96 91 85 79 88 69 61 60 53 51 54 49 57 56 43 30 2 7 149 147 159 143 130 170 186 183 180 197 226 245 265
191 197 68 13 60 47 36 43 53 53 53 58 67 57 71 83 91 74 64 54 50 43 43 17 36 39 38 43 33 56 130 148 151 136 147 132 152 163 183 217 269 293 290
195 194 209 278 25 57 26 39 55 53 48 39 33 27 58 62 57 51 66 39 43 36 28 11 20 0 326 40 52 82 113 141 154 152 147 141 156 152 178 273 308 313 307
201 210 196 210 276 297 325 16 43 60 57 43 23 354 1 347 18 25 77 37 32 21 5 5 6 14 33 180 76 99 109 116 137 149 146 152 153 134 40 6 342 328 313
217 220 218 217 240 252 265 283 360 67 74 39 33 19 338 334 337 352 342 14 18 347 353 5 17 29 12 186 215 311 148 126 134 134 144 142 126 63 23 11 355 343 322
233 228 247 234 227 229 238 261 261 4 48 36 24 6 352 319 314 308 350 3 339 331 346 359 4 9 22 54 82 270 292 98 128 120 140 152 133 20 6 1 351 335 322
232 236 246 239 223 224 224 242 249 301 345 9 12 3 3 328 268 355 58 16 3 1 352 360 350 332 358 40 69 48 157 117 121 121 134 172 259 323 334 341 359 346 337
233 231 234 227 232 250 251 240 251 277 304 334 0 5 18 3 328 33 30 13 16 358 359 349 345 313 321 40 81 70 110 140 125 147 161 190 273 279 290 311 320 329 326
239 230 225 222 225 254 256 256 250 276 291 306 327 354 19 27 21 21 12 7 11 7 1 353 343 322 330 206 124 93 105 140 145 139 142 289 277 279 279 302 306 312 324
240 225 220 212 224 240 244 247 245 265 278 286 309 313 8 13 7 11 2 1 7 14 4 3 37 66 54 203 184 115 136 140 150 197 308 314 280 277 294 310 311 316 322
237 228 212 205 208 215 229 230 241 259 255 254 294 314 342 342 348 348 346 336 5 2 2 4 68 97 77 125 192 182 170 158 150 296 315 309 307 306 314 299 313 316 325
233 226 212 207 213 225 237 241 238 244 248 257 252 254 328 315 332 325 334 330 337 346 359 21 63 44 47 26 219 195 175 171 107 76 341 326 318 311 306 310 309 317 325
229 219 217 208 209 231 235 233 234 243 248 238 225 262 293 308 327 334 327 326 331 337 2 30 51 347 9 21 42 139 188 156 168 205 342 312 286 300 302 302 300 297 302
227 219 215 213 222 243 240 230 230 227 217 220 242 254 283 292 312 331 320 321 335 345 359 31 38 41 14 39 110 97 137 200 219 225 353 302 298 273 282 286 296 294 282
235 218 216 218 241 258 245 231 225 221 226 234 242 260 262 273 301 320 324 326 345 350 329 343 19 44 23 21 25 36 40 201 226 247 299 320 301 302 304 287 287 283 282
238 224 223 231 243 249 246 224 224 231 230 238 254 268 264 273 291 297 2 1 1 348 333 332 6 33 38 16 4 9 351 305 309 310 318 320 316 313 310 306 299 293 289
273 236 226 234 248 247 243 224 226 225 229 241 247 261 251 242 241 269 305 336 345 342 330 305 329 344 351 349 341 333 321 309 309 310 311 318 314 322 320 318 312 306 301
288 243 235 239 245 250 237 223 225 225 233 235 235 234 244 235 248 256 269 291 323 328 297 305 315 329 334 334 327 320 318 313 306 304 308 309 319 333 330 331 329 325 320
271 230 233 244 251 252 226 227 227 231 232 234 234 239 243 245 269 265 263 276 326 338 315 311 324 331 328 323 319 315 309 305 302 300 295 302 316 324 327 326 325 318 310